Date,TemperatureHighF,TemperatureAvgF,TemperatureLowF,DewpointHighF,DewpointAvgF,DewpointLowF,HumidityHigh,HumidityAvg,HumidityLow,PressureMaxIn,PressureMinIn,WindSpeedMaxMPH,WindSpeedAvgMPH,GustSpeedMaxMPH,PrecipitationSumIn
2013-1-1,44.4,38.5,34.3,43.6,35.8,27.1,98,90,71,30.17,30.01,2,0,2,0.29
2013-1-2,43.3,38.2,35.2,42.7,35.9,32.8,98,91,78,30.17,29.97,8,0,8,0.01
2013-1-3,40.0,34.4,29.1,34.1,30.6,25.3,96,86,68,30.35,30.13,8,0,8,0.00
2013-1-4,40.1,30.4,25.0,25.5,21.7,17.3,86,71,41,30.45,30.35,10,0,10,0.00
2013-1-5,49.9,34.6,20.8,31.9,21.9,17.8,90,63,30,30.48,30.28,8,0,8,0.00
2013-1-6,45.8,38.6,34.7,36.1,32.7,29.2,90,79,68,30.29,30.11,9,0,9,0.00
2013-1-7,53.6,37.6,27.7,31.5,25.9,22.6,88,65,31,30.44,30.28,7,0,7,0.00
2013-1-8,56.2,40.1,27.0,41.4,32.3,24.0,91,75,49,30.48,30.35,11,0,11,0.00
2013-1-9,48.7,44.0,38.5,46.5,41.1,36.1,96,90,84,30.50,30.39,2,0,2,0.00
2013-1-10,65.8,52.9,43.5,53.4,47.4,42.5,98,83,61,30.51,30.29,9,0,9,0.00
2013-1-11,60.7,55.4,49.3,57.3,52.3,45.5,96,89,79,30.30,30.08,11,1,11,0.08
2013-1-12,71.2,60.8,54.2,61.3,56.2,52.8,97,85,65,30.16,30.03,9,0,9,0.00
2013-1-13,70.3,62.9,58.7,57.6,55.0,51.7,90,76,59,30.06,29.96,12,1,12,0.01
2013-1-14,60.8,51.9,43.3,58.3,50.7,42.4,97,95,90,30.20,29.97,8,0,8,2.20
2013-1-15,53.2,48.2,43.4,52.2,47.4,42.6,98,97,93,30.14,29.98,8,0,8,1.17
2013-1-16,57.6,51.2,47.6,55.7,50.4,46.8,98,97,90,30.03,29.92,6,0,6,0.30
2013-1-17,48.7,40.0,31.3,48.2,39.2,29.8,98,97,95,30.27,29.82,9,0,9,1.67
2013-1-18,47.5,32.6,26.8,29.9,26.8,21.4,95,81,37,30.57,30.28,8,0,8,0.05
2013-1-19,56.3,37.4,26.2,30.7,26.1,17.9,96,69,24,30.51,30.22,14,0,14,0.01
2013-1-20,54.4,39.6,26.6,34.1,29.2,23.5,94,68,39,30.23,30.11,7,0,7,0.00
2013-1-21,48.4,34.9,26.3,29.6,22.5,11.1,95,65,32,30.15,30.03,13,0,13,0.00
2013-1-22,30.7,23.9,18.1,12.5,3.1,-5.2,58,42,22,30.33,30.12,14,1,14,0.00
2013-1-23,43.1,29.8,22.7,24.5,13.6,0.5,82,52,36,30.41,30.15,7,0,7,0.00
2013-1-24,42.1,32.3,23.4,30.7,15.5,2.3,75,51,27,30.43,30.10,13,1,14,0.00
2013-1-25,37.9,27.6,21.6,36.5,19.1,3.1,97,72,43,30.46,30.14,15,0,15,0.02
2013-1-26,46.2,35.4,28.7,35.7,27.8,21.7,95,76,40,30.38,30.19,9,0,9,0.00
2013-1-27,46.0,34.0,23.8,32.8,27.1,22.0,94,77,53,30.53,30.38,16,0,16,0.02
2013-1-28,67.3,47.7,32.9,47.0,38.6,30.1,91,72,43,30.46,30.24,14,0,14,0.00
2013-1-29,73.0,54.9,40.9,57.1,47.6,39.6,96,79,40,30.25,29.96,11,0,11,0.00
2013-1-30,63.2,56.9,44.2,59.3,53.9,38.9,97,90,80,29.96,29.43,17,2,17,2.10
2013-1-31,44.0,33.5,28.3,40.2,23.4,18.3,91,67,43,30.05,29.53,15,1,15,0.03
2013-2-1,39.9,25.2,17.1,30.6,14.3,6.4,90,64,41,30.43,29.96,15,1,15,0.00
2013-2-2,42.1,28.1,16.4,31.1,19.0,8.0,95,71,36,30.43,30.10,9,0,9,0.00
2013-2-3,42.8,33.2,27.8,33.3,26.8,20.2,94,78,52,30.14,29.97,14,0,14,0.05
2013-2-4,51.9,36.0,23.2,25.9,21.6,18.5,85,59,32,30.18,30.00,12,1,12,0.00
2013-2-5,56.1,41.5,31.8,38.8,31.1,21.8,85,68,41,30.04,29.94,9,0,9,0.00
2013-2-6,57.8,43.5,32.1,35.8,27.8,20.0,91,58,24,30.25,30.03,8,0,8,0.00
2013-2-7,47.0,40.1,33.9,39.2,32.0,22.9,97,75,47,30.26,30.01,8,1,11,0.52
2013-2-8,49.6,40.3,33.2,43.3,36.4,26.8,98,87,55,30.22,29.93,17,1,17,0.01
2013-2-9,56.2,38.2,27.1,26.8,22.4,14.7,85,58,20,30.37,30.19,10,0,10,0.00
2013-2-10,50.8,44.5,36.0,45.3,26.7,17.5,95,53,31,30.38,30.10,14,1,14,0.31
2013-2-11,55.7,50.3,44.7,52.1,44.4,29.5,96,81,55,30.13,30.00,12,1,12,0.02
2013-2-12,50.8,42.7,36.0,37.7,29.1,20.9,95,61,31,30.16,29.93,11,0,11,0.12
2013-2-13,50.1,40.7,34.6,43.5,36.8,29.9,95,86,63,29.95,29.64,20,1,20,0.08
2013-2-14,52.9,39.8,32.3,30.2,27.2,22.4,84,63,32,30.08,29.95,9,0,10,0.00
2013-2-15,57.4,38.2,27.0,37.0,30.1,25.3,95,77,31,30.14,29.98,8,0,8,0.02
2013-2-16,34.7,29.3,22.2,29.6,22.3,11.8,91,76,45,30.08,29.92,12,1,12,0.00
2013-2-17,35.6,25.6,19.2,13.7,10.1,7.3,66,52,33,30.33,30.08,17,1,17,0.00
2013-2-18,53.6,35.2,18.2,24.4,18.7,12.3,84,54,31,30.43,30.16,12,1,12,0.00
2013-2-19,52.2,41.3,32.7,40.1,26.3,12.6,90,57,30,30.19,29.90,15,1,15,0.02
2013-2-20,43.9,33.5,27.7,16.5,9.9,-0.8,57,39,18,30.22,30.10,12,1,12,0.00
2013-2-21,62.4,39.4,21.7,35.6,15.0,-9.5,90,44,6,30.27,30.09,8,0,8,0.20
2013-2-22,46.7,40.2,35.2,40.5,36.1,30.1,94,85,70,30.26,30.08,14,1,14,0.24
2013-2-23,55.1,45.9,39.1,50.0,43.2,37.5,98,91,78,30.10,29.85,6,0,6,0.26
2013-2-24,54.4,42.7,32.2,41.8,29.5,20.3,93,64,28,30.08,29.88,11,0,11,0.00
2013-2-25,49.7,37.3,28.0,29.9,25.4,22.0,87,64,38,30.14,30.02,11,0,11,0.00
2013-2-26,44.7,38.7,33.2,41.3,36.2,29.2,97,90,77,30.02,29.55,16,1,16,0.75
2013-2-27,53.9,41.6,35.9,36.7,32.7,28.6,93,72,46,29.84,29.68,8,0,8,0.04
2013-2-28,36.4,33.2,30.6,33.9,26.9,23.2,91,77,65,29.98,29.76,9,0,9,0.01
2013-3-1,37.6,32.6,29.2,30.4,28.2,25.3,93,84,69,30.01,29.95,8,0,8,0.00
2013-3-2,37.9,31.1,26.0,29.7,26.6,20.4,92,83,62,30.03,29.92,10,0,10,0.01
2013-3-3,31.9,25.9,22.0,21.2,16.9,14.0,85,69,51,30.13,30.01,10,1,10,0.00
2013-3-4,52.7,35.0,21.9,23.5,15.8,8.9,78,49,18,30.23,30.10,8,0,8,0.00
2013-3-5,49.5,39.1,32.7,47.4,34.7,22.3,97,85,56,30.12,29.67,10,0,10,0.83
2013-3-6,32.6,28.0,24.8,29.4,24.7,21.2,93,87,79,30.27,29.76,15,1,15,0.00
2013-3-7,39.1,30.5,27.0,30.3,25.4,23.1,90,82,67,30.39,30.26,10,0,10,0.01
2013-3-8,49.7,34.2,24.0,28.0,24.3,21.3,91,70,39,30.43,30.33,9,0,9,0.00
2013-3-9,66.0,44.1,24.0,29.7,25.2,21.6,92,55,22,30.40,30.24,10,0,10,0.00
2013-3-10,65.3,54.3,44.5,34.0,30.2,25.9,56,40,27,30.26,30.09,10,1,13,0.00
2013-3-11,55.3,51.5,48.4,50.6,46.0,33.1,96,83,46,30.11,29.80,14,1,14,0.66
2013-3-12,52.0,42.4,35.0,50.3,37.2,31.0,97,83,58,30.08,29.77,11,1,11,0.31
2013-3-13,44.9,35.6,28.8,31.1,24.4,15.5,90,65,39,30.27,30.07,16,1,16,0.00
2013-3-14,45.7,32.2,23.2,17.5,15.2,11.0,71,51,27,30.38,30.26,11,1,11,0.00
2013-3-15,68.5,47.6,30.2,40.3,29.4,14.6,87,52,23,30.28,29.94,10,0,12,0.00
2013-3-16,77.8,61.0,47.1,46.6,42.7,39.8,77,54,29,29.94,29.73,12,0,12,0.00
2013-3-17,75.3,60.9,50.5,48.7,45.0,40.9,77,58,30,29.92,29.78,10,1,10,0.00
2013-3-18,50.4,44.5,41.0,43.8,40.9,37.2,97,88,78,29.99,29.81,12,1,12,0.51
2013-3-19,56.4,44.3,35.7,42.8,29.5,12.2,98,62,27,30.11,29.87,14,1,14,0.00
2013-3-20,54.2,39.5,29.6,30.6,14.8,7.6,92,39,18,30.14,29.86,10,0,10,0.00
2013-3-21,35.9,27.6,20.1,27.8,14.1,9.8,92,58,34,30.04,29.88,11,1,12,0.00
2013-3-22,46.9,33.4,20.0,23.4,15.0,9.9,89,50,23,30.12,30.03,6,0,6,0.00
2013-3-23,55.9,43.6,35.1,42.4,34.0,21.9,91,70,51,30.09,29.85,7,0,9,0.02
2013-3-24,48.0,42.7,37.2,43.2,39.7,35.5,96,89,75,29.90,29.48,12,1,12,0.85
2013-3-25,39.9,33.7,29.4,36.4,25.9,20.7,97,74,49,29.97,29.53,19,1,19,0.02
2013-3-26,36.5,30.3,26.7,30.0,25.9,22.6,92,84,69,30.28,29.97,14,1,14,0.01
2013-3-27,42.6,33.3,28.6,27.8,24.8,21.6,90,72,49,30.36,30.26,9,1,9,0.01
2013-3-28,51.2,36.5,26.3,24.4,21.3,18.3,80,57,28,30.38,30.28,9,0,9,0.00
2013-3-29,54.7,37.1,24.0,37.8,27.5,14.8,95,73,25,30.39,30.30,13,0,13,0.08
2013-3-30,62.8,48.8,37.9,44.3,38.9,36.7,97,73,42,30.30,30.04,7,0,7,0.19
2013-3-31,63.1,52.1,46.6,52.3,48.1,38.3,97,87,54,30.04,29.83,5,0,5,0.49
2013-4-1,59.7,49.8,39.6,48.6,41.8,30.9,98,77,46,30.02,29.87,12,0,12,0.01
2013-4-2,56.2,44.6,35.1,31.8,23.7,13.6,69,46,22,30.19,30.01,9,0,9,0.00
2013-4-3,59.9,45.4,31.3,25.7,19.8,15.2,58,38,18,30.28,30.17,7,0,7,0.00
2013-4-4,47.6,39.0,34.9,35.8,28.9,13.4,96,72,28,30.25,30.00,10,0,10,0.45
2013-4-5,58.1,44.0,36.7,43.2,37.4,34.7,97,80,45,30.12,29.99,10,0,10,0.01
2013-4-6,69.8,50.4,31.8,40.2,33.0,27.8,96,59,23,30.25,30.12,10,1,10,0.00
2013-4-7,72.5,58.5,47.6,44.6,38.1,30.6,63,48,32,30.18,30.03,12,1,12,0.00
2013-4-8,76.8,61.6,45.3,51.6,46.4,41.2,87,60,37,30.13,30.00,11,0,11,0.00
2013-4-9,83.3,66.4,48.9,54.7,51.1,46.4,93,61,34,30.17,30.03,8,0,9,0.00
2013-4-10,88.8,69.2,51.7,55.0,52.2,48.8,91,59,26,30.07,29.88,12,0,12,0.00
2013-4-11,78.7,68.0,60.8,61.9,54.7,49.9,95,64,39,29.91,29.63,15,1,15,1.27
2013-4-12,66.0,58.8,49.3,59.5,50.0,37.2,97,75,43,29.88,29.57,11,1,15,0.67
2013-4-13,69.3,55.5,45.8,38.8,35.6,27.5,73,50,22,30.05,29.88,14,1,14,0.00
2013-4-14,70.3,54.8,39.6,48.8,39.7,35.2,88,61,30,30.09,29.95,12,1,12,0.00
2013-4-15,74.3,59.3,51.1,55.6,52.0,46.5,97,79,48,30.16,29.95,16,1,16,0.06
2013-4-16,83.7,67.0,55.6,57.1,55.0,52.1,90,68,36,30.23,30.11,11,1,11,0.00
2013-4-17,73.3,64.7,58.8,63.2,57.9,54.5,96,79,63,30.20,30.08,13,0,13,0.27
2013-4-18,75.7,66.8,59.6,59.7,56.6,52.5,87,71,47,30.08,29.86,13,1,13,0.00
2013-4-19,66.8,58.1,42.2,62.1,54.5,35.2,96,88,76,29.96,29.66,15,1,15,0.64
2013-4-20,59.2,45.2,34.3,35.5,30.7,27.2,83,59,32,30.32,29.96,14,1,14,0.00
2013-4-21,63.4,47.3,32.2,37.0,32.0,26.0,93,60,27,30.45,30.31,12,0,12,0.00
2013-4-22,68.0,51.7,37.3,40.0,35.7,28.4,89,57,30,30.41,30.17,10,1,10,0.00
2013-4-23,76.0,55.7,36.5,44.7,35.9,25.7,81,50,21,30.26,30.05,12,1,12,0.00
2013-4-24,72.5,59.6,46.9,59.1,48.8,43.4,92,70,41,30.12,29.95,10,1,10,0.05
2013-4-25,66.7,50.9,40.8,44.7,32.8,-0.8,91,58,8,30.35,30.12,12,0,12,0.00
2013-4-26,69.7,52.0,33.7,46.5,34.3,30.0,88,56,25,30.44,30.28,12,0,12,0.00
2013-4-27,54.4,51.1,49.3,51.0,48.5,44.7,97,91,77,30.38,30.22,6,0,6,0.77
2013-4-28,52.7,50.1,46.5,51.2,48.2,42.7,97,93,78,30.24,29.96,12,0,12,1.18
2013-4-29,75.0,59.5,49.0,56.6,51.8,48.1,98,79,40,30.07,29.92,7,0,7,0.08
2013-4-30,78.7,62.3,51.9,58.3,53.6,49.9,98,77,39,30.12,29.96,10,0,10,0.00
2013-5-1,67.5,59.8,51.0,54.8,51.5,48.9,94,75,54,30.23,30.12,11,0,11,0.00
2013-5-2,67.3,58.2,54.0,55.2,51.9,49.6,90,80,63,30.25,30.18,9,1,9,0.00
2013-5-3,65.0,56.8,52.3,51.3,48.6,44.5,87,75,58,30.19,30.03,10,1,10,0.00
2013-5-4,56.9,52.0,47.7,48.1,44.9,36.8,93,77,64,30.04,29.92,12,1,12,0.28
2013-5-5,54.1,50.4,47.8,50.6,48.1,45.3,97,92,80,29.95,29.78,12,1,12,0.75
2013-5-6,68.5,56.3,46.5,52.1,46.9,36.4,97,74,34,29.89,29.77,9,0,9,0.00
2013-5-7,69.5,53.4,41.3,50.7,45.2,40.0,97,77,37,29.96,29.85,9,0,9,0.01
2013-5-8,66.3,56.8,50.4,56.8,52.9,49.3,98,88,61,30.05,29.92,6,0,6,0.06
2013-5-9,78.0,61.4,50.5,58.8,52.5,48.6,98,77,39,30.12,30.02,9,0,9,0.01
2013-5-10,77.2,62.1,50.5,65.4,55.9,49.1,97,82,48,30.10,29.92,7,0,7,0.05
2013-5-11,72.8,62.0,55.7,63.5,57.9,52.2,97,87,65,29.95,29.81,7,0,7,0.17
2013-5-12,61.9,53.3,44.5,52.4,41.3,30.9,92,67,35,30.09,29.90,10,1,10,0.00
2013-5-13,61.9,49.5,39.8,34.5,31.0,25.3,78,52,26,30.22,30.09,11,0,11,0.00
2013-5-14,77.0,55.9,35.0,49.6,39.6,32.3,92,59,28,30.28,30.07,14,1,14,0.00
2013-5-15,85.0,66.6,49.1,56.8,51.4,47.2,96,63,30,30.14,29.96,8,0,8,0.00
2013-5-16,78.5,65.3,54.0,58.5,53.8,50.7,90,68,41,30.02,29.94,4,0,4,0.00
2013-5-17,82.8,66.5,52.9,59.2,55.1,51.0,96,70,39,30.10,29.98,12,0,12,0.00
2013-5-18,69.3,64.7,60.9,63.8,60.2,55.0,97,86,66,30.06,29.99,8,0,8,1.09
2013-5-19,76.7,66.3,60.7,66.3,62.5,59.6,97,88,67,30.08,29.96,10,0,10,0.06
2013-5-20,84.5,69.4,59.5,66.6,62.0,58.7,98,80,47,30.09,29.97,11,0,11,0.00
2013-5-21,89.8,70.7,59.3,66.4,61.7,57.8,98,76,39,30.03,29.88,9,0,9,0.00
2013-5-22,83.3,66.5,59.2,66.7,61.1,56.6,97,84,47,29.96,29.81,10,0,10,0.21
2013-5-23,80.8,66.7,58.5,62.9,58.3,49.5,98,78,38,29.94,29.81,7,0,7,0.05
2013-5-24,66.2,58.2,49.7,54.3,45.6,35.1,92,65,36,30.23,29.92,9,1,11,0.00
2013-5-25,74.8,56.2,40.3,44.1,38.5,26.0,90,57,17,30.34,30.19,11,0,11,0.00
2013-5-26,73.8,60.9,52.5,51.4,46.9,39.0,89,63,32,30.27,30.17,8,0,8,0.00
2013-5-27,81.4,64.5,48.3,59.3,53.0,46.6,96,69,44,30.26,30.10,9,0,9,0.00
2013-5-28,84.5,71.4,60.4,61.4,58.3,54.8,86,65,38,30.17,30.07,9,0,9,0.00
2013-5-29,87.8,72.0,59.8,62.2,58.5,52.5,90,66,32,30.18,30.08,9,0,9,0.00
2013-5-30,84.3,70.8,59.8,62.8,59.5,57.1,93,69,43,30.22,30.09,9,0,9,0.00
2013-5-31,84.8,72.8,65.4,62.0,59.7,56.4,86,65,40,30.17,30.05,9,0,9,0.00
2013-6-1,84.0,73.3,65.6,64.0,61.2,57.1,85,68,41,30.07,29.95,14,0,14,0.00
2013-6-2,69.8,66.1,63.1,67.2,64.1,62.2,98,93,81,29.99,29.87,8,0,8,0.93
2013-6-3,79.8,68.9,61.8,64.8,61.8,56.7,98,80,49,29.95,29.85,10,0,10,0.00
2013-6-4,81.8,68.5,58.2,63.4,60.2,56.8,97,77,47,30.04,29.94,7,0,7,0.00
2013-6-5,82.4,69.6,60.5,66.8,62.8,58.4,96,80,57,30.06,29.89,10,0,10,0.37
2013-6-6,78.8,69.1,63.0,68.6,65.0,62.1,98,87,68,29.94,29.73,8,0,8,0.05
2013-6-7,82.6,68.8,61.4,68.0,64.4,60.0,97,87,57,29.81,29.65,8,0,8,0.75
2013-6-8,80.7,67.4,59.0,64.9,61.2,58.1,98,82,52,30.07,29.81,4,0,4,0.35
2013-6-9,81.2,67.0,58.8,69.2,63.4,57.9,98,89,61,30.13,29.99,8,0,8,1.67
2013-6-10,79.2,69.2,64.0,68.2,63.5,58.3,97,83,53,30.00,29.85,13,0,13,0.59
2013-6-11,82.7,70.4,62.5,64.7,62.6,60.2,98,79,50,30.00,29.91,8,0,8,0.06
2013-6-12,89.8,72.9,60.9,72.4,65.7,59.7,97,81,50,30.02,29.90,8,0,8,0.00
2013-6-13,90.0,70.5,62.7,70.7,65.2,61.4,98,86,40,29.90,29.68,10,0,10,0.20
2013-6-14,79.3,66.0,56.1,63.0,56.4,52.1,97,74,45,30.05,29.80,8,0,8,0.00
2013-6-15,84.5,66.8,51.2,63.1,56.2,49.9,97,72,39,30.14,30.03,5,0,5,0.00
2013-6-16,87.3,71.6,58.6,66.6,61.8,57.2,97,74,40,30.11,29.97,6,0,6,0.00
2013-6-17,82.3,71.1,64.8,69.0,66.4,63.9,98,86,57,30.00,29.90,5,0,5,0.14
2013-6-18,75.0,67.7,66.2,69.3,66.1,64.8,96,95,82,29.91,29.80,5,0,5,0.04
2013-6-19,81.1,67.3,57.1,65.5,61.2,56.3,98,83,54,30.10,29.91,1,0,3,0.34
2013-6-20,82.4,68.5,57.8,67.0,62.8,57.2,99,84,55,30.20,30.09,3,0,7,0.00
2013-6-21,84.8,69.8,60.0,66.1,62.1,58.9,98,78,46,30.23,30.13,2,0,5,0.00
2013-6-22,86.2,69.8,56.7,63.7,59.6,55.7,98,73,40,30.23,30.07,1,0,4,0.00
2013-6-23,85.5,70.0,59.4,68.9,63.5,58.1,97,81,52,30.19,30.08,6,0,6,0.00
2013-6-24,88.6,72.6,62.4,70.0,65.8,61.2,97,81,46,30.19,30.05,7,0,8,0.00
2013-6-25,84.7,71.6,63.3,69.5,66.1,61.9,97,84,55,30.12,29.98,8,0,11,0.00
2013-6-26,85.0,71.5,63.8,72.7,67.4,62.6,98,88,61,30.03,29.88,9,0,9,0.09
2013-6-27,85.7,71.5,63.3,72.9,67.7,62.2,98,89,60,29.92,29.75,8,0,8,0.28
2013-6-28,87.3,72.1,64.1,70.9,66.6,62.3,99,85,48,29.80,29.60,7,0,7,0.11
2013-6-29,83.7,69.9,61.5,67.0,61.0,55.9,98,77,39,29.69,29.62,6,0,6,0.00
2013-6-30,87.0,68.7,57.1,65.9,60.9,55.8,98,79,38,29.78,29.68,7,0,8,0.49
2013-7-1,78.5,68.4,64.0,71.8,65.5,63.0,98,91,62,29.92,29.75,8,0,8,1.49
2013-7-2,85.5,71.3,63.5,70.3,65.8,61.7,98,84,49,30.08,29.91,10,0,10,0.14
2013-7-3,73.0,67.0,61.7,70.8,65.2,61.1,98,94,86,30.20,30.05,11,0,11,2.11
2013-7-4,77.0,66.5,61.8,71.8,65.3,61.2,99,96,77,30.20,30.13,9,0,9,1.28
2013-7-5,83.5,71.3,66.7,70.1,66.4,64.8,96,86,58,30.20,30.12,13,0,13,0.04
2013-7-6,80.4,70.9,65.3,70.8,67.5,64.4,98,90,68,30.17,30.05,8,0,8,1.58
2013-7-7,79.2,70.7,67.9,72.4,68.6,66.7,98,93,73,30.13,30.05,6,0,6,0.75
2013-7-8,87.0,73.7,66.6,69.3,66.9,63.0,99,82,48,30.17,30.07,5,0,5,0.04
2013-7-9,90.8,73.7,65.5,71.5,66.9,63.9,98,82,42,30.13,30.00,8,0,8,0.62
2013-7-10,89.0,71.5,65.9,74.0,68.4,65.3,99,91,56,30.09,29.92,11,0,11,1.16
2013-7-11,79.2,71.0,66.0,71.4,68.0,65.4,99,91,72,29.95,29.85,4,0,4,0.03
2013-7-12,82.8,71.8,64.6,69.0,65.7,62.4,99,83,55,29.97,29.85,8,0,8,0.18
2013-7-13,78.3,68.7,60.9,68.1,64.3,60.1,98,86,69,30.08,29.95,7,0,7,0.06
2013-7-14,74.0,68.9,66.1,71.7,67.4,64.9,98,95,90,30.25,30.07,7,0,7,1.18
2013-7-15,84.7,72.9,65.2,70.5,66.7,63.9,98,83,55,30.31,30.22,6,0,6,0.01
2013-7-16,89.0,71.3,62.1,72.9,67.3,61.1,98,89,53,30.31,30.21,6,0,6,0.58
2013-7-17,86.7,71.1,65.1,74.1,69.0,64.7,99,94,60,30.28,30.14,4,0,4,0.30
2013-7-18,88.0,73.2,66.6,75.7,69.8,65.9,99,90,61,30.20,30.04,6,0,6,0.02
2013-7-19,69.6,67.8,66.7,68.7,67.3,66.1,99,98,97,30.10,30.05,0,0,0,0.00
2013-7-20,83.7,72.8,66.7,72.3,69.0,66.1,98,89,65,30.01,29.90,9,0,9,0.00
2013-7-21,85.0,71.0,65.9,72.6,67.9,64.8,98,91,58,29.99,29.91,7,0,7,0.06
2013-7-22,88.6,72.9,64.8,72.2,67.0,63.9,98,84,47,29.97,29.78,9,0,9,0.26
2013-7-23,85.0,72.3,64.5,70.3,66.9,63.9,98,85,55,29.88,29.76,5,0,5,0.07
2013-7-24,85.5,72.1,65.0,70.4,66.4,61.9,99,84,52,29.84,29.76,7,0,7,0.00
2013-7-25,86.6,71.6,63.8,67.1,63.7,57.4,98,79,41,30.01,29.83,7,0,7,0.00
2013-7-26,84.2,69.8,59.0,68.4,63.9,58.0,98,83,54,30.06,29.96,7,0,7,0.00
2013-7-27,81.2,70.9,65.6,70.6,66.4,63.8,98,86,58,30.00,29.84,7,0,7,0.69
2013-7-28,81.7,70.8,63.2,68.4,65.0,61.0,97,83,58,30.01,29.88,6,0,6,0.00
2013-7-29,82.5,67.2,56.8,63.1,58.3,51.2,98,77,36,30.19,30.01,6,0,6,0.00
2013-7-30,81.3,66.9,56.0,67.9,60.4,54.9,98,81,47,30.23,30.13,6,0,7,0.00
2013-7-31,75.2,68.4,63.3,69.7,66.2,61.9,98,93,79,30.17,29.93,5,0,5,0.21
2013-8-1,83.0,71.8,65.5,70.6,67.3,63.9,98,87,62,29.96,29.88,8,0,8,0.00
2013-8-2,85.5,70.0,60.2,68.2,63.9,59.4,98,83,49,30.02,29.93,5,0,6,0.00
2013-8-3,84.3,70.7,62.0,68.1,64.9,61.1,98,84,53,30.02,29.95,6,0,6,0.00
2013-8-4,79.4,70.5,63.6,68.4,64.5,61.1,98,83,59,30.03,29.96,5,0,6,0.00
2013-8-5,86.0,69.6,59.3,70.8,63.6,58.4,98,83,52,30.05,29.92,8,0,8,0.15
2013-8-6,84.3,71.5,62.8,71.9,66.2,61.6,98,85,56,30.00,29.92,8,0,8,0.04
2013-8-7,76.2,71.0,68.7,70.6,68.1,66.3,96,90,82,30.01,29.96,7,0,7,0.14
2013-8-8,84.0,72.3,64.5,73.4,68.7,63.9,99,89,68,30.02,29.96,9,0,9,0.00
2013-8-9,84.5,72.9,66.7,75.2,69.9,65.8,98,91,65,30.05,29.98,6,0,6,0.37
2013-8-10,86.0,71.6,66.2,75.2,69.6,65.6,99,94,66,30.11,30.02,11,0,11,0.36
2013-8-11,85.8,71.1,65.0,74.6,68.5,64.5,99,92,60,30.14,30.03,11,0,11,0.38
2013-8-12,85.6,71.6,66.0,73.7,69.2,65.7,99,93,64,30.08,29.95,11,0,12,0.03
2013-8-13,82.0,71.7,67.8,73.8,68.6,66.3,99,91,68,29.96,29.82,8,0,8,0.06
2013-8-14,75.5,67.1,61.5,66.5,61.3,57.5,97,83,56,30.05,29.87,5,0,5,0.00
2013-8-15,75.2,64.1,57.5,61.3,57.6,55.0,95,80,57,30.12,30.03,11,0,11,0.00
2013-8-16,76.3,65.0,57.0,61.6,57.6,54.6,94,78,56,30.12,30.04,10,0,10,0.00
2013-8-17,69.8,64.0,59.8,62.7,59.4,56.3,97,85,71,30.16,30.08,10,1,10,0.10
2013-8-18,81.5,66.6,61.2,69.4,63.8,60.5,98,91,64,30.20,30.10,9,0,9,0.10
2013-8-19,74.8,67.5,63.3,67.6,65.0,62.7,99,92,72,30.17,30.06,7,0,7,0.75
2013-8-20,82.5,70.1,63.1,70.7,66.0,62.5,99,88,63,30.17,30.08,9,0,9,0.00
2013-8-21,76.1,69.2,64.2,70.0,66.7,63.3,98,92,80,30.20,30.09,7,0,7,0.04
2013-8-22,85.2,71.5,64.4,69.6,66.3,63.7,99,86,54,30.16,30.01,6,0,6,0.00
2013-8-23,83.0,70.1,62.5,70.6,65.9,61.8,99,88,63,30.07,29.96,7,0,7,0.00
2013-8-24,80.3,69.2,62.4,66.0,61.8,56.6,98,79,49,30.27,30.07,9,0,9,0.00
2013-8-25,77.8,64.7,53.1,63.8,57.5,51.8,98,79,53,30.38,30.25,6,0,6,0.00
2013-8-26,81.2,65.2,53.4,65.0,59.6,52.5,98,84,54,30.33,30.13,6,0,6,0.00
2013-8-27,81.3,68.2,58.4,70.0,64.1,57.8,98,88,65,30.17,30.02,7,0,7,0.00
2013-8-28,85.8,72.7,64.4,71.3,67.6,63.8,98,86,59,30.05,29.93,7,0,7,0.00
2013-8-29,86.8,75.8,69.9,72.6,69.8,67.4,97,83,60,29.96,29.89,12,0,12,0.36
2013-8-30,84.8,73.6,66.5,72.6,69.0,65.9,99,87,63,30.00,29.89,12,0,12,0.00
2013-8-31,83.5,72.8,67.3,74.0,69.1,66.4,97,89,69,29.93,29.82,11,0,11,0.08
2013-9-1,87.8,72.1,66.5,72.3,68.4,65.6,98,89,56,29.89,29.78,10,0,10,0.28
2013-9-2,83.2,71.5,65.4,70.9,67.6,64.6,99,89,62,29.91,29.80,2,0,5,0.01
2013-9-3,81.7,69.7,61.9,68.0,64.7,60.9,98,86,56,29.99,29.82,6,0,7,0.22
2013-9-4,84.8,68.5,59.5,66.7,62.6,58.7,98,84,51,30.10,29.98,6,0,6,0.00
2013-9-5,80.7,66.9,58.8,65.2,61.1,58.0,98,84,52,30.15,30.08,5,0,5,0.00
2013-9-6,83.2,65.8,53.6,63.4,59.1,52.8,99,82,45,30.19,30.06,7,0,7,0.00
2013-9-7,82.0,66.9,58.2,65.0,61.1,57.3,97,84,51,30.12,29.99,7,0,7,0.00
2013-9-8,80.5,67.7,58.4,69.5,63.6,57.5,99,88,63,30.01,29.94,6,0,6,0.00
2013-9-9,85.0,70.5,61.5,69.8,65.2,60.6,98,85,54,30.12,30.01,8,0,8,0.00
2013-9-10,87.3,71.1,60.7,68.7,64.7,59.8,99,82,48,30.23,30.11,7,0,7,0.00
2013-9-11,84.7,70.3,61.8,71.4,66.1,60.9,98,88,56,30.22,30.07,6,0,6,0.13
2013-9-12,78.8,69.5,64.3,70.7,66.7,63.2,99,92,73,30.09,29.86,12,0,12,0.51
2013-9-13,75.2,65.2,55.7,63.9,58.9,49.4,99,82,49,29.93,29.83,8,0,8,0.02
2013-9-14,74.7,59.5,48.2,57.7,52.2,46.9,97,79,45,30.11,29.93,8,0,8,0.00
2013-9-15,76.2,63.0,52.0,62.6,57.1,50.8,98,82,58,30.20,30.09,8,0,8,0.00
2013-9-16,79.3,64.0,53.3,64.0,58.5,52.5,98,84,49,30.16,30.08,7,0,7,0.00
2013-9-17,71.8,62.8,58.3,59.5,56.0,52.6,97,79,58,30.26,30.16,9,0,9,0.00
2013-9-18,66.6,61.7,56.2,61.3,56.1,51.8,96,82,71,30.25,30.15,7,0,7,0.00
2013-9-19,77.8,66.2,60.6,65.8,62.0,59.1,97,87,60,30.17,30.05,7,0,7,0.00
2013-9-20,83.5,69.1,61.0,67.2,62.9,60.4,98,83,48,30.07,29.89,6,0,6,0.00
2013-9-21,68.7,63.8,60.0,65.1,61.8,59.4,98,94,84,29.89,29.68,7,0,7,1.15
2013-9-22,71.2,59.5,52.5,59.5,55.0,51.1,99,86,58,29.93,29.75,8,0,8,0.10
2013-9-23,77.8,60.2,49.0,61.2,54.5,48.2,98,84,47,30.05,29.93,8,0,8,0.00
2013-9-24,78.7,62.9,52.0,62.4,57.4,51.2,98,84,48,30.06,29.89,7,0,9,0.00
2013-9-25,63.7,61.3,58.4,62.4,59.4,57.0,98,94,87,29.91,29.82,6,0,9,0.71
2013-9-26,73.2,62.5,56.1,63.2,58.6,54.9,97,88,60,30.04,29.87,7,0,7,0.00
2013-9-27,75.8,61.4,53.6,60.8,56.1,52.8,98,85,52,30.17,30.04,5,0,5,0.00
2013-9-28,71.2,60.2,51.0,59.2,54.8,49.9,98,83,59,30.24,30.11,8,0,8,0.00
2013-9-29,73.0,60.2,49.9,60.0,53.9,48.1,95,81,54,30.16,30.01,9,0,9,0.00
2013-9-30,72.2,61.9,54.3,60.5,56.4,52.6,96,83,61,30.08,29.98,6,0,6,0.00
2013-10-1,77.8,61.9,53.4,61.5,56.9,52.4,98,85,50,30.16,30.05,4,0,4,0.00
2013-10-2,78.6,61.9,53.4,63.2,57.5,52.6,98,87,49,30.19,30.07,4,0,4,0.00
2013-10-3,79.5,64.4,55.5,64.5,59.1,54.6,98,85,51,30.15,30.05,4,0,4,0.00
2013-10-4,81.9,65.0,55.2,65.8,60.2,54.4,99,86,53,30.17,30.07,5,0,5,0.00
2013-10-5,83.3,66.8,57.2,65.6,61.0,56.3,99,84,50,30.15,30.01,8,0,8,0.00
2013-10-6,78.5,66.8,56.2,64.4,60.9,55.4,99,83,58,30.04,29.84,8,0,8,0.00
2013-10-7,68.3,57.7,49.4,63.4,54.6,48.3,98,90,68,30.05,29.77,7,0,7,1.19
2013-10-8,69.0,52.9,43.6,53.1,48.0,42.8,98,85,52,30.21,30.04,7,0,7,0.01
2013-10-9,74.7,55.0,43.8,57.7,49.6,42.7,98,84,51,30.25,30.12,5,0,5,0.00
2013-10-10,70.6,56.0,46.4,54.7,50.2,45.5,98,83,51,30.15,30.04,10,0,10,0.00
2013-10-11,73.7,58.6,47.0,56.7,52.6,45.9,99,83,52,30.09,29.98,10,0,11,0.00
2013-10-12,71.0,59.9,51.0,59.9,55.7,49.9,97,87,65,30.10,30.00,5,0,5,0.00
2013-10-13,71.7,63.6,57.6,62.7,59.9,56.6,98,88,72,30.19,30.10,6,0,6,0.02
2013-10-14,69.8,61.9,57.0,62.7,59.1,55.1,98,91,74,30.22,30.11,9,0,9,0.03
2013-10-15,69.5,58.9,52.0,59.4,55.1,51.1,98,88,68,30.17,30.03,10,0,10,0.00
2013-10-16,70.9,59.6,49.9,60.1,54.7,48.7,97,85,60,30.07,29.94,11,0,11,0.01
2013-10-17,74.0,61.8,54.1,64.5,59.1,50.5,98,91,69,29.97,29.80,9,0,9,0.04
2013-10-18,69.8,55.4,45.9,52.2,48.8,44.8,97,80,50,30.03,29.92,3,0,5,0.00
2013-10-19,61.0,54.5,49.6,55.2,49.9,45.8,96,85,62,29.97,29.86,7,0,7,0.00
2013-10-20,66.5,49.1,38.7,47.2,39.5,26.0,97,75,26,30.10,29.97,5,0,5,0.00
2013-10-21,68.3,50.7,37.0,52.0,44.9,36.0,98,83,46,30.17,30.01,8,0,8,0.00
2013-10-22,67.3,55.3,49.1,51.7,48.9,45.7,97,81,47,30.03,29.82,5,0,5,0.00
2013-10-23,50.9,45.6,36.0,46.8,37.6,28.2,96,75,54,30.08,29.75,11,1,13,0.00
2013-10-24,50.2,39.4,29.8,38.6,32.7,27.9,94,78,56,30.24,30.07,5,0,5,0.00
2013-10-25,45.9,36.1,27.7,36.7,28.0,25.0,92,73,47,30.43,30.24,7,0,7,0.01
2013-10-26,59.7,38.8,23.5,38.7,29.3,22.3,96,73,31,30.41,30.15,4,0,4,0.00
2013-10-27,65.4,53.5,45.5,49.3,43.5,37.5,91,70,52,30.17,30.07,6,0,6,0.00
2013-10-28,59.9,52.6,46.5,56.0,50.6,45.4,98,93,78,30.27,30.13,3,0,3,0.04
2013-10-29,71.7,57.1,46.8,52.8,49.6,46.1,99,79,43,30.35,30.23,7,0,7,0.00
2013-10-30,73.8,61.1,53.2,57.3,53.5,50.3,92,77,51,30.28,30.14,4,0,4,0.00
2013-10-31,64.3,61.4,55.9,59.7,55.2,51.7,92,80,69,30.16,29.72,11,1,11,0.00
2013-11-1,74.1,62.8,52.9,59.9,54.0,46.0,97,75,44,29.78,29.61,8,0,8,0.08
2013-11-2,57.7,49.9,42.4,46.2,41.4,36.5,89,73,47,30.05,29.74,10,0,11,0.00
2013-11-3,56.3,44.9,38.9,39.1,36.5,32.9,93,74,45,30.37,30.05,5,0,6,0.00
2013-11-4,58.2,45.1,33.1,33.5,31.4,29.0,91,61,34,30.51,30.36,6,0,8,0.00
2013-11-5,61.7,46.2,33.9,40.8,31.1,22.9,84,59,24,30.54,30.41,10,0,10,0.00
2013-11-6,68.1,55.7,46.9,52.1,48.7,41.0,95,78,53,30.43,30.11,9,1,9,0.00
2013-11-7,57.4,49.4,37.4,53.0,44.5,31.1,97,83,70,30.21,30.00,9,0,13,0.07
2013-11-8,52.1,39.3,31.8,31.7,26.2,20.5,81,62,30,30.37,30.22,9,0,9,0.00
2013-11-9,55.0,39.6,27.1,34.4,28.1,23.9,89,67,35,30.40,30.26,3,0,6,0.00
2013-11-10,63.1,49.2,36.3,40.2,31.8,26.1,80,52,30,30.32,30.22,11,0,11,0.00
2013-11-11,65.7,44.9,27.2,32.0,28.2,24.3,90,57,21,30.35,30.18,7,0,7,0.00
2013-11-12,49.4,37.6,24.0,39.4,27.5,13.3,86,67,52,30.53,30.13,11,1,11,0.00
2013-11-13,41.4,27.9,19.5,20.5,17.6,13.9,85,67,40,30.64,30.52,9,0,9,0.00
2013-11-14,60.2,36.8,19.0,23.5,18.4,11.6,91,55,16,30.56,30.35,6,0,8,0.00
2013-11-15,46.7,37.7,28.5,46.2,31.2,19.4,98,79,51,30.38,30.20,2,0,2,0.11
2013-11-16,63.7,52.0,43.6,53.6,48.9,43.1,99,90,69,30.29,30.17,9,0,9,0.00
2013-11-17,61.4,58.1,55.5,57.7,55.1,51.8,95,90,81,30.18,29.85,9,1,9,0.29
2013-11-18,61.4,53.7,43.8,58.3,42.2,30.0,98,68,38,30.07,29.82,11,0,14,0.01
2013-11-19,53.6,42.0,34.9,30.7,27.2,22.6,72,57,32,30.24,30.07,5,0,8,0.00
2013-11-20,50.8,41.4,34.8,30.6,26.3,24.0,71,56,36,30.44,30.23,10,1,10,0.00
2013-11-21,52.9,46.0,37.9,51.4,40.4,29.6,97,81,66,30.49,30.38,9,1,9,0.04
2013-11-22,66.2,57.0,49.3,57.9,53.6,48.2,98,89,72,30.39,30.14,7,0,7,0.00
2013-11-23,55.1,44.3,30.3,53.1,40.1,21.0,96,85,65,30.28,30.10,10,1,10,0.00
2013-11-24,33.6,25.6,19.9,21.4,12.7,7.1,73,59,38,30.55,30.27,10,1,10,0.00
2013-11-25,40.6,30.6,19.1,30.2,11.3,3.4,85,47,25,30.57,30.33,7,0,7,0.00
2013-11-26,42.6,39.0,32.5,42.1,38.1,28.4,98,96,81,30.33,29.70,16,1,16,1.88
2013-11-27,40.7,28.8,22.5,39.9,26.0,16.7,97,89,77,30.28,29.69,13,1,13,0.06
2013-11-28,44.6,27.4,16.5,26.7,20.0,14.3,93,76,39,30.54,30.28,6,0,6,0.03
2013-11-29,51.7,33.3,21.9,32.0,25.0,20.2,94,74,40,30.64,30.52,6,0,6,0.02
2013-11-30,49.1,35.4,27.5,27.8,24.4,22.1,85,66,39,30.62,30.39,9,0,9,0.00
2013-12-1,56.5,36.4,23.9,37.3,28.7,22.1,94,76,43,30.39,30.08,4,0,4,0.00
2013-12-2,56.2,42.6,30.6,42.2,35.6,28.6,93,78,53,30.08,29.83,7,0,7,0.00
2013-12-3,58.5,49.0,39.5,48.8,44.4,37.9,97,84,69,29.94,29.85,5,0,7,0.00
2013-12-4,65.6,55.6,48.2,55.3,51.3,46.3,94,86,68,30.03,29.92,11,1,11,0.00
2013-12-5,70.8,62.1,55.0,62.3,58.2,52.4,97,87,70,30.06,29.93,12,0,12,0.21
2013-12-6,71.0,63.4,50.2,63.1,59.9,48.4,97,89,73,30.03,29.86,12,1,12,0.27
2013-12-7,50.3,40.9,37.8,49.2,38.7,36.2,97,92,84,30.38,29.98,7,0,7,0.00
2013-12-8,44.3,39.7,37.4,39.8,37.3,35.1,98,91,80,30.35,30.18,13,1,13,0.15
2013-12-9,50.2,44.8,38.5,48.5,43.9,37.7,99,97,93,30.20,30.03,4,0,7,0.17
2013-12-10,43.8,36.7,27.3,43.3,33.9,23.4,98,89,74,30.37,29.94,7,0,12,0.31
2013-12-11,50.4,32.4,20.1,29.2,21.8,16.1,96,69,33,30.51,30.36,6,0,6,0.00
2013-12-12,36.6,29.2,22.7,22.0,16.8,7.9,82,62,30,30.50,30.40,4,0,11,0.00
2013-12-13,50.8,32.5,17.7,25.0,18.6,14.4,88,60,29,30.47,30.28,6,0,6,0.00
2013-12-14,43.9,40.9,36.9,42.6,34.6,18.7,98,81,42,30.31,29.78,11,0,11,0.10
2013-12-15,42.2,33.8,27.9,41.7,31.6,25.7,98,92,84,30.18,29.78,14,0,14,0.00
2013-12-16,54.3,35.3,23.8,35.7,28.0,22.7,97,78,43,30.28,30.16,6,0,6,0.00
2013-12-17,56.5,39.4,27.0,38.0,30.5,22.2,96,73,45,30.21,29.98,10,0,10,0.00
2013-12-18,45.7,33.5,26.9,23.6,17.0,6.9,78,54,21,30.35,30.17,10,0,10,0.00
2013-12-19,60.6,41.1,23.5,33.7,22.4,15.0,82,51,28,30.39,30.22,17,1,17,0.00
2013-12-20,65.6,50.7,36.7,47.5,32.7,22.3,82,52,32,30.23,30.09,13,1,13,0.00
2013-12-21,63.7,59.4,52.5,61.1,55.6,46.8,95,87,78,30.12,29.90,15,2,15,0.02
2013-12-22,64.5,58.4,54.7,61.6,56.8,53.4,98,94,80,30.04,29.87,12,1,12,1.79
2013-12-23,56.4,44.8,33.3,55.8,43.1,31.2,99,94,86,30.26,29.98,11,0,11,0.28
2013-12-24,33.3,28.3,20.0,31.2,22.6,16.1,93,79,63,30.49,30.25,10,0,12,0.00
2013-12-25,43.4,26.5,15.7,20.7,16.0,11.4,94,69,32,30.57,30.41,4,0,8,0.00
2013-12-26,47.5,30.8,19.5,26.0,21.8,16.1,93,72,39,30.45,30.35,7,0,7,0.00
2013-12-27,53.7,32.4,21.2,29.6,23.2,17.9,96,73,26,30.55,30.42,4,0,4,0.00
2013-12-28,46.4,33.6,22.4,40.0,29.1,20.1,96,84,49,30.49,30.14,11,0,11,0.30
2013-12-29,49.0,41.1,37.5,45.0,39.1,34.8,98,93,82,30.14,29.87,12,1,12,0.25
2013-12-30,42.0,37.9,33.0,38.3,34.9,30.4,93,89,83,30.21,30.03,6,0,6,0.00
2013-12-31,39.1,31.4,24.9,30.5,24.1,19.5,94,76,51,30.44,30.19,11,0,11,0.00
2014-1-1,46.7,33.8,22.5,29.5,24.7,20.1,92,71,44,30.44,30.17,13,1,13,0.00
2014-1-2,47.4,33.3,17.7,44.5,30.1,14.5,94,88,71,30.17,29.71,13,0,13,0.04